Wind_Speed
7 6 6 8 8 9 9 8 10 13 14 15 17 18 18 18 17 17 18 19 21 23 25 28 30 33 34 36 36 36 36 35 34 33 33 33 33 33 33 33 31 30 27 25
4 5 8 7 7 7 7 7 10 12 13 14 15 16 16 16 17 17 19 20 22 25 27 29 31 32 34 34 34 35 35 35 35 34 34 35 35 35 35 34 33 31 28 26
4 8 7 7 7 6 7 6 10 11 11 11 12 13 13 15 16 17 19 20 22 24 26 28 30 32 33 33 34 35 36 37 37 37 37 37 37 37 37 37 35 34 32 29
6 7 7 7 7 5 7 8 9 10 10 10 9 13 13 15 16 18 20 22 23 25 27 29 32 34 35 36 36 37 38 39 39 40 40 41 41 41 40 39 39 37 36 34
5 5 5 6 7 5 8 7 8 9 9 10 10 12 16 16 19 20 22 24 26 28 30 32 34 35 36 37 38 39 39 41 42 42 43 44 44 44 43 42 41 40 39 38
2 3 4 4 5 5 6 7 8 10 11 12 14 14 19 18 20 23 24 26 28 30 32 34 34 35 36 37 39 40 41 42 44 45 46 46 46 46 46 45 45 44 43 42
3 2 2 3 5 6 7 8 9 11 11 14 19 18 19 20 22 24 26 28 29 31 32 33 34 35 37 38 40 41 42 43 44 45 45 45 45 45 45 45 45 45 46 46
3 4 4 4 6 8 8 8 9 10 12 16 20 19 19 21 22 24 25 28 29 31 33 34 35 37 38 39 40 41 42 42 42 42 42 42 42 42 42 43 44 44 45 47
3 5 6 6 7 8 9 9 10 11 13 13 17 18 18 21 23 24 26 28 29 31 33 35 37 38 40 40 41 41 41 40 40 40 40 39 40 40 40 41 42 44 46 47
5 7 7 7 7 7 8 9 9 8 10 11 16 19 20 21 23 25 27 28 30 32 35 37 38 40 41 41 41 40 40 40 39 39 39 39 40 41 42 44 45 46 48 49
6 7 7 7 6 6 6 7 7 8 10 12 13 19 20 22 24 26 28 30 32 34 36 37 39 40 41 41 41 40 40 40 39 39 39 40 42 44 45 47 48 49 51 52
6 6 7 7 7 6 7 7 8 10 12 13 15 19 20 22 24 27 29 31 33 35 37 39 40 41 42 41 41 41 41 40 39 40 41 42 44 46 48 50 51 53 54 55
6 6 8 9 9 9 8 9 10 11 13 15 16 21 21 23 26 28 30 33 35 37 39 40 42 43 42 42 42 42 41 40 40 41 43 45 47 49 52 54 55 56 57 58
6 6 6 7 9 11 11 12 13 14 15 17 18 21 23 26 29 31 33 35 37 39 40 42 43 43 43 42 42 42 41 41 41 44 46 48 50 52 54 56 57 57 57 57
7 8 9 10 12 13 14 15 15 16 16 18 20 23 25 28 31 33 34 36 39 40 42 43 44 44 43 43 43 42 41 41 43 46 49 50 52 53 56 58 59 59 57 56
8 9 11 13 14 16 16 16 17 17 18 20 22 24 27 29 32 34 36 38 40 42 43 44 45 45 44 44 43 42 41 42 45 48 50 52 54 55 57 57 58 56 54 52
11 12 13 14 16 17 16 16 17 18 20 22 25 27 29 31 33 36 38 40 42 43 45 45 46 46 45 45 44 43 42 44 47 50 52 54 55 56 56 55 53 51 48 46
12 13 15 16 17 17 17 17 17 18 21 24 26 29 31 32 34 37 39 41 42 44 45 47 47 47 46 46 45 44 44 46 49 51 52 54 55 55 54 52 49 47 44 41
13 15 16 18 19 18 17 17 18 20 21 25 27 29 31 33 36 38 40 42 44 46 47 49 49 48 47 46 45 45 45 47 49 51 53 53 54 53 52 49 46 42 38 35
15 16 18 19 19 19 19 19 20 22 24 26 28 30 33 35 36 39 42 43 45 47 48 49 50 49 48 46 45 45 46 48 49 51 52 53 52 51 50 47 42 38 34 30
17 17 18 19 20 21 20 21 23 25 27 28 30 32 35 37 39 41 42 44 46 47 49 50 50 50 48 46 45 45 46 48 49 51 52 52 51 50 48 45 40 35 31 26
18 19 19 19 20 22 22 23 24 25 27 29 31 33 36 38 41 42 44 46 47 48 49 50 49 49 48 46 45 45 46 47 49 50 50 50 49 48 46 42 38 33 28 23
18 19 20 20 21 22 23 24 25 26 28 30 32 34 37 40 42 44 46 47 48 49 49 49 49 48 47 46 45 44 45 47 48 49 49 49 48 47 44 40 35 31 26 19
20 19 20 20 21 22 23 25 26 27 29 31 33 35 38 41 43 46 48 48 48 48 49 49 48 48 47 46 45 44 44 45 47 48 47 47 46 45 42 38 34 30 24 17
21 20 20 20 21 22 23 25 26 28 29 31 34 37 39 42 45 47 49 49 49 48 49 49 48 47 46 45 44 43 43 44 45 46 46 45 44 43 39 35 31 28 23 18
21 20 20 20 21 22 24 25 27 29 31 33 36 39 41 44 46 48 48 49 49 48 48 48 47 47 46 44 43 42 41 43 43 44 44 43 42 41 38 34 30 26 22 18
Wind_Direction
251 247 239 245 250 250 261 267 277 285 287 285 285 286 286 284 283 281 280 281 282 284 287 290 292 294 295 296 297 298 299 300 298 296 295 293 293 293 293 296 299 298 297 289
252 243 249 255 262 268 277 285 289 294 293 288 286 286 286 282 283 285 286 287 289 291 293 295 296 297 299 300 300 300 299 298 297 296 294 293 292 291 291 292 294 293 292 290
224 250 253 254 258 268 279 278 287 299 299 294 292 291 289 289 290 293 294 296 297 298 299 300 301 302 303 303 303 302 301 298 296 295 293 292 290 289 288 288 288 287 285 283
259 256 246 242 250 253 268 279 289 299 304 302 304 301 300 300 300 300 301 301 301 303 303 304 304 304 303 302 301 301 299 298 296 295 293 291 289 287 286 284 282 280 278 275
263 252 236 232 242 246 255 280 290 298 301 301 305 300 301 303 302 301 302 302 302 302 303 304 304 303 302 301 301 300 299 298 296 295 293 292 290 287 285 282 279 276 273 269
281 254 240 239 250 257 276 289 300 304 307 297 301 299 297 303 301 299 300 302 303 303 303 304 304 304 303 302 302 301 299 298 296 295 293 291 289 287 284 282 278 275 271 266
349 322 278 269 268 278 288 297 305 303 298 286 295 296 300 301 300 301 302 303 304 304 305 305 306 306 305 304 302 301 299 298 296 295 293 291 288 285 283 281 278 274 270 266
334 310 313 294 283 288 290 285 276 275 281 289 297 299 305 306 306 308 308 308 309 310 309 310 309 308 307 305 303 302 301 300 298 297 294 292 289 286 283 281 278 276 272 267
312 310 311 302 292 286 286 282 282 287 292 296 301 308 311 312 314 314 315 315 316 315 314 313 312 311 310 309 308 306 305 304 302 300 297 294 291 288 285 283 280 278 275 271
327 318 315 308 300 294 292 295 298 300 300 304 308 312 318 320 321 321 321 321 320 319 318 317 316 315 314 313 312 310 308 307 305 302 300 296 293 290 288 285 282 279 276 273
339 334 331 330 331 331 328 323 322 321 320 319 316 314 327 326 326 326 326 325 323 322 321 320 319 319 318 316 314 312 310 308 306 305 303 300 297 295 292 289 285 281 277 273
347 353 350 355 359 357 351 344 340 337 334 332 330 325 333 330 330 329 329 328 326 325 325 324 323 323 321 319 317 315 312 310 309 307 306 304 302 300 297 293 290 286 281 276
349 360 4 355 355 354 349 346 343 341 339 338 336 329 336 334 333 333 333 331 330 329 329 328 327 326 324 322 319 317 314 312 311 310 309 307 306 304 301 298 294 290 284 279
337 351 357 335 330 337 339 340 340 339 338 336 336 333 334 336 336 337 336 334 333 333 332 331 330 328 326 324 321 318 316 314 314 314 314 312 310 308 305 302 298 293 288 282
328 340 341 336 333 333 334 334 333 332 333 334 334 334 334 335 336 337 336 335 335 335 334 333 332 330 328 326 323 320 318 317 317 318 318 316 315 312 309 306 301 296 291 285
327 334 334 331 328 326 327 326 325 326 329 332 332 333 333 333 333 335 336 336 337 336 335 334 333 331 330 328 326 323 320 320 321 322 321 320 318 316 313 310 306 300 294 286
323 329 330 327 323 322 319 323 323 325 327 331 332 332 333 333 332 334 335 336 337 337 336 335 334 333 332 330 329 326 324 324 325 325 324 323 322 320 316 313 310 304 297 289
323 326 326 325 324 324 323 321 321 324 328 331 331 331 332 332 332 334 334 335 335 336 336 336 336 335 334 332 331 329 328 328 328 328 328 327 326 324 321 319 315 309 302 293
321 321 321 323 325 322 319 320 322 326 329 329 330 331 332 333 333 334 335 335 335 336 337 337 336 336 336 334 333 331 331 331 332 332 331 330 330 328 327 324 321 316 309 299
312 314 316 318 320 318 320 322 323 325 328 331 332 333 334 335 335 334 335 335 335 336 337 337 336 337 336 335 334 333 333 334 335 335 335 334 334 333 332 330 327 323 318 308
306 308 311 313 316 316 319 322 324 328 330 332 333 335 335 336 336 335 335 335 335 335 336 336 336 337 337 336 335 335 335 336 337 338 339 339 338 338 337 336 333 331 326 319
301 305 308 310 312 312 319 322 325 327 329 332 333 335 336 336 335 335 335 335 335 335 336 336 336 337 337 337 337 336 337 338 340 341 342 343 342 342 342 341 340 338 334 328
298 300 305 308 309 311 316 320 323 327 329 331 332 334 335 335 334 335 335 335 335 335 335 335 336 337 338 338 338 338 339 340 342 344 345 346 347 346 346 346 346 345 343 339
299 302 305 307 308 311 315 319 323 326 329 330 332 333 334 334 335 335 335 335 335 335 335 336 337 338 339 339 339 339 340 342 345 346 348 349 350 350 351 352 352 353 353 351
302 306 306 307 308 311 315 318 322 325 327 329 330 332 333 334 335 336 336 336 337 336 337 337 337 338 340 340 340 340 341 344 346 348 350 352 353 354 355 356 356 358 0 2
304 307 306 307 309 312 315 319 321 324 325 327 328 331 333 335 336 337 337 338 338 338 338 338 338 339 340 341 341 341 343 345 347 350 352 354 356 357 358 359 360 1 4 5
Height
5873 5876 5877 5876 5876 5877 5877 5877 5877 5875 5874 5873 5871 5870 5870 5869 5868 5867 5866 5865 5864 5863 5861 5859 5856 5853 5850 5847 5843 5840 5836 5833 5830 5827 5824 5821 5819 5816 5813 5810 5807 5803 5799 5795
5873 5874 5873 5873 5873 5874 5874 5875 5873 5872 5871 5869 5868 5867 5865 5864 5864 5863 5862 5860 5859 5857 5855 5852 5849 5846 5842 5838 5835 5831 5828 5824 5821 5818 5815 5813 5810 5808 5805 5802 5799 5796 5793 5790
5872 5872 5871 5871 5872 5872 5873 5873 5872 5869 5867 5866 5865 5863 5862 5861 5860 5858 5857 5855 5853 5851 5848 5845 5842 5838 5834 5831 5827 5823 5819 5816 5812 5809 5806 5804 5801 5799 5796 5793 5791 5789 5787 5785
5869 5869 5869 5870 5870 5870 5872 5870 5869 5867 5866 5864 5863 5862 5860 5857 5856 5854 5852 5850 5848 5845 5842 5839 5835 5831 5827 5823 5819 5815 5811 5807 5803 5800 5797 5793 5791 5788 5786 5783 5781 5780 5778 5777
5868 5867 5868 5868 5868 5868 5868 5868 5866 5865 5864 5863 5861 5860 5857 5854 5853 5851 5848 5846 5843 5840 5837 5833 5829 5825 5820 5816 5811 5807 5803 5798 5794 5790 5786 5782 5779 5776 5774 5772 5770 5769 5768 5767
5867 5866 5866 5867 5867 5867 5866 5866 5865 5863 5862 5862 5859 5858 5854 5852 5849 5846 5844 5841 5838 5835 5831 5827 5822 5818 5813 5808 5803 5798 5794 5789 5784 5779 5775 5771 5768 5764 5761 5759 5758 5757 5756 5756
5867 5867 5866 5866 5866 5866 5865 5865 5865 5863 5861 5859 5856 5854 5852 5848 5845 5842 5839 5836 5833 5829 5824 5820 5815 5810 5805 5800 5795 5789 5784 5779 5773 5768 5763 5759 5755 5751 5748 5746 5744 5743 5742 5742
5868 5868 5866 5865 5865 5864 5863 5863 5864 5863 5861 5857 5852 5850 5848 5844 5841 5838 5834 5831 5827 5822 5817 5812 5807 5802 5797 5791 5785 5779 5773 5768 5762 5756 5751 5746 5742 5739 5736 5733 5730 5728 5727 5727
5868 5867 5865 5864 5863 5862 5861 5860 5859 5858 5856 5854 5851 5847 5844 5840 5837 5833 5829 5825 5820 5815 5810 5804 5799 5793 5787 5780 5774 5768 5762 5756 5750 5745 5740 5735 5731 5727 5723 5720 5717 5715 5713 5712
5867 5865 5864 5862 5861 5860 5859 5857 5856 5855 5853 5852 5849 5844 5840 5836 5832 5828 5823 5819 5814 5808 5803 5796 5790 5783 5777 5770 5763 5757 5750 5744 5738 5733 5728 5723 5719 5714 5711 5707 5704 5701 5698 5696
5865 5864 5862 5860 5858 5857 5856 5855 5853 5852 5850 5848 5846 5843 5837 5832 5828 5823 5818 5813 5808 5802 5796 5789 5782 5775 5768 5760 5753 5746 5740 5733 5727 5722 5716 5711 5706 5701 5696 5692 5688 5684 5681 5679
5864 5863 5861 5859 5857 5855 5854 5853 5851 5850 5847 5844 5842 5841 5833 5828 5824 5819 5814 5808 5802 5795 5789 5781 5773 5766 5758 5750 5743 5736 5729 5722 5716 5710 5704 5698 5692 5687 5681 5675 5670 5665 5661 5658
5863 5862 5860 5859 5858 5856 5853 5851 5849 5847 5844 5841 5838 5837 5829 5824 5819 5814 5808 5802 5795 5788 5781 5773 5765 5757 5749 5741 5733 5726 5718 5711 5705 5699 5692 5685 5678 5671 5664 5657 5650 5644 5639 5635
5862 5860 5860 5860 5857 5854 5851 5849 5846 5844 5841 5837 5834 5830 5825 5819 5814 5808 5802 5795 5788 5781 5773 5765 5757 5748 5740 5732 5724 5716 5708 5701 5694 5687 5680 5672 5663 5655 5646 5638 5629 5622 5615 5611
5860 5859 5857 5855 5853 5851 5849 5846 5843 5840 5837 5834 5830 5825 5820 5814 5808 5803 5796 5790 5782 5774 5766 5758 5749 5741 5732 5723 5715 5706 5698 5691 5684 5675 5667 5657 5648 5638 5628 5618 5608 5599 5592 5586
5858 5857 5855 5853 5851 5848 5846 5843 5840 5837 5833 5829 5825 5821 5815 5809 5803 5798 5791 5784 5776 5768 5760 5751 5742 5733 5724 5715 5706 5697 5689 5681 5673 5663 5654 5643 5633 5622 5610 5598 5587 5577 5569 5563
5855 5854 5853 5851 5848 5846 5843 5841 5837 5833 5829 5825 5821 5817 5810 5804 5798 5792 5785 5778 5770 5762 5753 5744 5734 5725 5715 5706 5696 5688 5679 5671 5662 5651 5641 5630 5618 5606 5593 5580 5568 5557 5548 5542
5853 5851 5850 5848 5846 5843 5842 5837 5834 5830 5826 5821 5816 5811 5806 5800 5793 5787 5779 5772 5764 5756 5746 5737 5727 5717 5707 5697 5688 5678 5669 5660 5651 5640 5628 5616 5604 5591 5577 5564 5551 5540 5531 5524
5850 5849 5847 5845 5842 5840 5837 5834 5830 5826 5823 5818 5813 5807 5801 5795 5788 5781 5774 5765 5757 5748 5738 5728 5718 5709 5699 5689 5679 5669 5660 5650 5640 5629 5617 5604 5591 5577 5563 5550 5537 5526 5517 5510
5848 5846 5844 5841 5838 5836 5834 5830 5825 5823 5818 5814 5808 5802 5796 5790 5784 5776 5767 5759 5750 5741 5732 5722 5711 5701 5691 5681 5671 5661 5652 5642 5631 5619 5607 5593 5579 5566 5552 5539 5527 5516 5506 5499
5845 5843 5841 5837 5834 5832 5829 5825 5822 5818 5814 5808 5802 5797 5790 5783 5777 5770 5762 5754 5745 5735 5726 5715 5704 5694 5684 5674 5664 5654 5644 5633 5622 5610 5597 5584 5570 5557 5543 5530 5518 5508 5499 5492
5841 5839 5836 5834 5831 5829 5824 5820 5817 5814 5808 5802 5797 5791 5785 5778 5771 5764 5756 5747 5738 5729 5719 5709 5698 5687 5677 5667 5657 5647 5637 5626 5615 5603 5590 5577 5563 5550 5537 5525 5513 5503 5494 5488
5836 5835 5832 5830 5828 5823 5819 5816 5812 5808 5803 5798 5792 5786 5780 5773 5766 5758 5750 5741 5732 5722 5713 5702 5692 5681 5670 5660 5650 5640 5631 5620 5609 5597 5584 5571 5558 5545 5533 5521 5510 5501 5492 5486
5831 5829 5826 5824 5821 5818 5814 5811 5807 5802 5797 5792 5787 5781 5775 5768 5760 5752 5743 5735 5725 5716 5706 5696 5686 5675 5665 5654 5644 5635 5625 5615 5604 5592 5580 5568 5555 5543 5531 5520 5510 5501 5493 5487
5826 5823 5821 5819 5816 5813 5809 5806 5801 5797 5792 5787 5781 5775 5769 5762 5754 5746 5737 5728 5719 5710 5700 5690 5680 5670 5660 5649 5639 5630 5620 5610 5600 5589 5577 5565 5553 5542 5530 5520 5511 5503 5495 5489
5819 5818 5816 5813 5810 5808 5804 5800 5796 5791 5786 5781 5776 5769 5763 5755 5748 5739 5731 5722 5713 5703 5694 5684 5674 5664 5655 5645 5635 5626 5616 5607 5597 5587 5575 5564 5553 5542 5531 5521 5513 5505 5499 5493